TimeMDT,TemperatureF,Dew PointF,Humidity,Sea Level PressureIn,VisibilityMPH,Wind Direction,Wind SpeedMPH,Gust SpeedMPH,PrecipitationIn,Events,Conditions,WindDirDegrees,DateUTC
12:56 AM,36.0,32.0,86,30.12,10.0,Calm,Calm,-,N/A,,Clear,0,2013-09-20 06:56:00
1:56 AM,32.9,30.0,89,30.12,10.0,ENE,3.5,-,N/A,,Clear,60,2013-09-20 07:56:00
2:56 AM,36.0,31.1,82,30.08,10.0,Calm,Calm,-,N/A,,Clear,0,2013-09-20 08:56:00
3:56 AM,32.0,28.0,85,30.10,10.0,Calm,Calm,-,N/A,,Clear,0,2013-09-20 09:56:00
4:56 AM,34.9,26.1,70,30.07,10.0,Calm,Calm,-,N/A,,Clear,0,2013-09-20 10:56:00
5:56 AM,31.1,27.1,85,30.09,10.0,ESE,3.5,-,N/A,,Clear,110,2013-09-20 11:56:00
6:56 AM,31.1,26.1,82,30.09,10.0,Calm,Calm,-,N/A,,Clear,0,2013-09-20 12:56:00
7:56 AM,32.0,29.1,89,30.12,10.0,NE,3.5,-,N/A,,Clear,50,2013-09-20 13:56:00
8:56 AM,45.0,32.0,60,30.09,10.0,NE,4.6,-,N/A,,Clear,50,2013-09-20 14:56:00
9:56 AM,52.9,30.0,42,30.05,10.0,Calm,Calm,-,N/A,,Clear,0,2013-09-20 15:56:00
10:56 AM,57.9,27.1,31,30.03,4.0,WNW,4.6,-,N/A,,Haze,300,2013-09-20 16:56:00
11:13 AM,57.2,26.6,31,30.17,2.0,Calm,Calm,-,N/A,,Haze,0,2013-09-20 17:13:00
11:24 AM,59.0,26.6,29,30.17,4.0,West,4.6,-,N/A,,Haze,260,2013-09-20 17:24:00
11:56 AM,61.9,28.0,28,30.01,8.0,SSW,6.9,-,N/A,,Clear,200,2013-09-20 17:56:00
12:56 PM,64.9,25.2,22,29.97,8.0,South,5.8,-,N/A,,Clear,170,2013-09-20 18:56:00
1:56 PM,68.0,24.1,19,29.94,9.0,Calm,Calm,-,N/A,,Clear,0,2013-09-20 19:56:00
2:56 PM,70.0,20.1,15,29.90,7.0,Variable,6.9,-,N/A,,Clear,0,2013-09-20 20:56:00
3:56 PM,70.9,22.1,16,29.90,9.0,SSW,6.9,-,N/A,,Clear,200,2013-09-20 21:56:00
4:56 PM,70.9,25.2,18,29.87,10.0,SW,6.9,-,N/A,,Clear,230,2013-09-20 22:56:00
5:56 PM,70.9,24.1,17,29.86,8.0,West,3.5,-,N/A,,Clear,270,2013-09-20 23:56:00
6:56 PM,66.9,32.0,27,29.87,9.0,SW,4.6,-,N/A,,Clear,220,2013-09-21 00:56:00
7:56 PM,52.0,36.9,56,29.92,10.0,East,10.4,-,N/A,,Clear,80,2013-09-21 01:56:00
8:56 PM,48.9,34.0,56,29.88,10.0,East,8.1,-,N/A,,Clear,90,2013-09-21 02:56:00
9:56 PM,43.9,34.9,71,29.87,10.0,Calm,Calm,-,N/A,,Clear,0,2013-09-21 03:56:00
10:56 PM,52.9,30.0,42,29.81,10.0,Calm,Calm,-,N/A,,Clear,0,2013-09-21 04:56:00
11:56 PM,45.9,34.0,63,29.81,10.0,ESE,3.5,-,N/A,,Clear,120,2013-09-21 05:56:00